Regional Weather Roundup
Issued by NWS Sioux Falls, SD

Home | Current Version | Previous Version | Text Only | Print | Product List | Glossary On
Versions: 1 2 3 4 5 6 7 8 9 10 11 12 13 14 15 16 17 18 19 20 21 22 23 24 25 26 27 28 29 30 31 32 33 34 35 36 37 38 39 40 41 42 43 44 45 46 47 48 49 50
000
ASUS43 KFSD 041302
RWRFSD

WEATHER ROUNDUP FOR SE SOUTH DAKOTA/SW MINNESOTA/NW IOWA
NATIONAL WEATHER SERVICE SIOUX FALLS SD
800 AM CDT MON MAY 04 2015

NOTE: "FAIR" INDICATES FEW OR NO CLOUDS BELOW 12,000 FEET WITH NO
SIGNIFICANT WEATHER AND OR OBSTRUCTIONS TO VISIBILITY.


SDZ038>040-050-052>070-041400-
SOUTHEAST SOUTH DAKOTA

CITY           SKY/WX    TMP DP  RH WIND       PRES   REMARKS
BROOKINGS      SUNNY     50  28  43 NE5       30.16S
CHAMBERLAIN    NOT AVBL
HURON          SUNNY     44  30  57 NW5       30.17R
MADISON        FAIR      50  27  40 NE14      30.15R
MITCHELL       SUNNY     48  34  58 NE9       30.16R
SIOUX FALLS    PTSUNNY   50  30  46 NE8       30.14R
WINNER         FAIR      51  28  41 CALM      30.18R
YANKTON        PTSUNNY   54  28  37 N12       30.11S
$$

MNZ071-072-080-081-089-090-097-098-041400-
SOUTHWEST MINNESOTA

CITY           SKY/WX    TMP DP  RH WIND       PRES   REMARKS
FAIRMONT       MOSUNNY   54  34  47 NE9       30.11R
JACKSON        MOSUNNY   55  32  41 NE17      30.12R
LUVERNE        MOSUNNY   52  30  43 N13G20    30.12S
MARSHALL       SUNNY     48  27  43 NW6       30.16R
MONTEVIDEO     SUNNY     48  34  57 N3        30.17R
REDWOOD FALLS  SUNNY     54  33  45 NE6       30.15R
TRACY          MOSUNNY   50  31  48 N6        30.16R
WORTHINGTON    MOSUNNY   52  28  40 N15       30.13R
$$

IAZ001>003-012>014-020>022-031-032-NEZ013-014-SDZ071-041400-
NORTHWEST IOWA

CITY           SKY/WX    TMP DP  RH WIND       PRES   REMARKS
DENISON        CLOUDY    55  46  71 NE14      30.04R
ESTHERVILLE    MOSUNNY   53  35  50 NE16      30.10R
SIOUX CITY     PTSUNNY   57  34  41 N7        30.10R
SPENCER        MOSUNNY   55  36  48 NE16      30.10R
$$

ABBREVIATIONS USED IN REMARKS
   TC - TEMPERATURE IN CELSIUS
  WCI - WIND CHILL INDEX
   HX - HEAT INDEX
  VSB - VISIBILITY




USA.gov is the U.S. government's official web portal to all federal, state and local government web resources and services.